WK7G Weather Reports


time (UTC)temp
C
wind
direction
speed
KPH
gust
KPH
rain 1hr
cm
rain 24hr
cm
rain mn
cm
humidity
%
barometer
mb
20260502162141 16 202 1.6 3.2 0.00 0.00 0.00 31 1014.7
20260502161638 16 131 0.0 1.6 0.00 0.00 0.00 32 1014.9
20260502161135 16 51 3.2 3.2 0.00 0.00 0.00 32 1014.7
20260502160633 16 127 1.6 1.6 0.00 0.00 0.00 33 1014.7
20260502160131 15 164 1.6 1.6 0.00 0.00 0.00 32 1014.6
20260502152045 15 115 3.2 3.2 0.00 0.00 0.00 33 1014.9
20260502151542 14 140 0.0 1.6 0.00 0.00 0.00 33 1014.5
20260502151040 13 131 3.2 3.2 0.00 0.00 0.00 35 1014.9
20260502150537 13 134 3.2 3.2 0.00 0.00 0.00 35 1014.8
20260502130422 2 130 0.0 1.6 0.00 0.00 0.00 60 1014.9
20260502123405 0 127 0.0 0.0 0.00 0.00 0.00 67 1014.8
20260502122902 2 123 1.6 1.6 0.00 0.00 0.00 64 1014.8
20260502122358 1 161 3.2 3.2 0.00 0.00 0.00 61 1015.2
20260502121856 2 115 3.2 3.2 0.00 0.00 0.00 59 1014.9
20260502121353 1 163 3.2 4.8 0.00 0.00 0.00 62 1014.8
20260502120851 1 158 3.2 3.2 0.00 0.00 0.00 64 1015.1
20260502120346 0 131 1.6 3.2 0.00 0.00 0.00 66 1014.9
20260502115844 0 110 3.2 3.2 0.00 0.00 0.00 65 1014.9
20260502115341 0 116 4.8 4.8 0.00 0.00 0.00 67 1014.9
20260502114837 0 105 4.8 4.8 0.00 0.00 0.00 64 1015.2
20260502114334 1 123 3.2 3.2 0.00 0.00 0.00 66 1015.1
20260502113831 1 127 1.6 1.6 0.00 0.00 0.00 65 1015.2
20260502113329 0 104 3.2 3.2 0.00 0.00 0.00 67 1015.1
20260502112827 0 99 4.8 4.8 0.00 0.00 0.00 67 1015.3
20260502112324 0 93 4.8 8.0 0.00 0.00 0.00 68 1015.3
20260502111821 0 108 1.6 3.2 0.00 0.00 0.00 68 1015.3
20260502111319 -1 99 4.8 4.8 0.00 0.00 0.00 69 1015.2
20260502110817 0 116 1.6 3.2 0.00 0.00 0.00 68 1015.3
20260502110314 0 127 1.6 1.6 0.00 0.00 0.00 69 1015.2
20260502105812 0 128 1.6 1.6 0.00 0.00 0.00 68 1015.3
20260502105308 0 133 1.6 1.6 0.00 0.00 0.00 68 1015.1
20260502104806 0 127 1.6 1.6 0.00 0.00 0.00 72 1015.4
20260502104303 -1 91 4.8 4.8 0.00 0.00 0.00 71 1015.4
20260502103800 -1 128 0.0 0.0 0.00 0.00 0.00 72 1015.3
20260502103257 0 131 1.6 1.6 0.00 0.00 0.00 72 1015.4
20260502102755 -1 138 1.6 3.2 0.00 0.00 0.00 73 1015.3
20260502102251 0 151 0.0 0.0 0.00 0.00 0.00 70 1015.4
20260502101749 0 147 0.0 0.0 0.00 0.00 0.00 68 1015.4
20260502101247 0 176 3.2 3.2 0.00 0.00 0.00 64 1015.2
20260502100745 0 165 3.2 3.2 0.00 0.00 0.00 68 1015.2
20260502100243 -1 128 1.6 1.6 0.00 0.00 0.00 73 1015.3
20260502091217 0 130 1.6 3.2 0.00 0.00 0.00 69 1014.9
20260502090715 0 133 1.6 1.6 0.00 0.00 0.00 68 1014.7
20260502090211 0 140 0.0 0.0 0.00 0.00 0.00 67 1014.9
20260502071113 1 90 4.8 4.8 0.00 0.00 0.00 67 1015.5
20260502070611 1 89 3.2 3.2 0.00 0.00 0.00 64 1015.2
20260502070109 1 156 0.0 0.0 0.00 0.00 0.00 66 1015.1
20260502065607 0 136 0.0 0.0 0.00 0.00 0.00 68 1015.3
20260502065104 1 126 1.6 1.6 0.00 0.00 0.00 68 1015.2
20260502064603 1 132 0.0 1.6 0.00 0.00 0.00 65 1015.3
20260502064059 1 122 1.6 1.6 0.00 0.00 0.00 68 1015.3
20260502063557 1 135 0.0 0.0 0.00 0.00 0.00 65 1015.2
20260502063055 1 134 1.6 1.6 0.00 0.00 0.00 66 1015.4
20260502062551 2 139 3.2 3.2 0.00 0.00 0.00 62 1014.9
20260502062049 2 153 1.6 1.6 0.00 0.00 0.00 60 1015.1
20260502061547 3 154 1.6 1.6 0.00 0.00 0.00 60 1015.2
20260502061044 4 116 3.2 3.2 0.00 0.00 0.00 56 1015.3
20260502060539 3 94 8.0 8.0 0.00 0.00 0.00 56 1015.2
20260502060036 3 104 4.8 4.8 0.00 0.00 0.00 57 1015.1
20260502055534 3 116 1.6 1.6 0.00 0.00 0.00 60 1015.1
20260502055032 3 100 3.2 3.2 0.00 0.00 0.00 57 1015.2
20260502054531 3 104 4.8 4.8 0.00 0.00 0.00 59 1015.3
20260502054027 2 119 1.6 1.6 0.00 0.00 0.00 60 1015.3
20260502053524 1 90 6.4 8.0 0.00 0.00 0.00 65 1015.1
20260502053022 1 130 3.2 3.2 0.00 0.00 0.00 69 1015.2
20260502052520 2 111 4.8 4.8 0.00 0.00 0.00 68 1015.1
20260502052018 2 161 0.0 0.0 0.00 0.00 0.00 64 1015.3
20260502051516 3 181 1.6 1.6 0.00 0.00 0.00 67 1014.8
20260502051013 5 124 4.8 4.8 0.00 0.00 0.00 54 1014.9
20260502050509 5 112 4.8 4.8 0.00 0.00 0.00 53 1014.7
20260502050007 5 105 4.8 4.8 0.00 0.00 0.00 54 1014.9
20260502045503 5 110 8.0 9.7 0.00 0.00 0.00 52 1014.7
20260502045001 5 83 12.9 14.5 0.00 0.00 0.00 52 1015.2
20260502044456 5 80 12.9 16.1 0.00 0.00 0.00 53 1014.7
20260502043953 4 109 4.8 4.8 0.00 0.00 0.00 58 1014.9
20260502043451 5 134 1.6 1.6 0.00 0.00 0.00 55 1014.9
20260502042950 5 100 6.4 8.0 0.00 0.00 0.00 53 1015.1
20260502042447 5 88 8.0 11.3 0.00 0.00 0.00 55 1015.1
20260502041945 4 107 4.8 4.8 0.00 0.00 0.00 57 1015.2
20260502041442 5 142 6.4 8.0 0.00 0.00 0.00 55 1014.8
20260502040939 6 104 8.0 9.7 0.00 0.00 0.00 51 1014.9
20260502040435 6 107 8.0 9.7 0.00 0.00 0.00 51 1014.9
20260502035932 6 93 8.0 9.7 0.00 0.00 0.00 52 1014.9
20260502035428 6 100 8.0 9.7 0.00 0.00 0.00 51 1014.8
20260502034926 6 99 9.7 11.3 0.00 0.00 0.00 49 1014.8
20260502034425 6 85 12.9 14.5 0.00 0.00 0.00 48 1014.8
20260502033923 7 91 8.0 9.7 0.00 0.00 0.00 49 1014.6
20260502033420 6 79 11.3 14.5 0.00 0.00 0.00 50 1014.6
20260502032916 7 87 11.3 12.9 0.00 0.00 0.00 48 1014.3
20260502032413 7 83 12.9 14.5 0.00 0.00 0.00 48 1014.3
20260502031910 6 73 9.7 11.3 0.00 0.00 0.00 51 1014.2
20260502031409 7 88 11.3 12.9 0.00 0.00 0.00 47 1014.0
20260502030907 6 84 11.3 12.9 0.00 0.00 0.00 51 1014.1
20260502030404 6 67 11.3 11.3 0.00 0.00 0.00 55 1013.9
20260502025902 7 77 8.0 9.7 0.00 0.00 0.00 52 1013.9
20260502025359 6 97 8.0 9.7 0.00 0.00 0.00 52 1013.7
20260502024857 6 73 6.4 8.0 0.00 0.00 0.00 51 1014.0
20260502024354 6 94 4.8 8.0 0.00 0.00 0.00 59 1013.7
20260502023852 7 128 1.6 1.6 0.00 0.00 0.00 54 1013.4
20260502023349 7 130 1.6 1.6 0.00 0.00 0.00 52 1013.5
20260502022847 7 134 0.0 0.0 0.00 0.00 0.00 55 1013.4
20260502022343 8 132 4.8 4.8 0.00 0.00 0.00 53 1013.6
20260502021840 9 130 3.2 3.2 0.00 0.00 0.00 49 1013.5
20260502021337 10 141 0.0 0.0 0.00 0.00 0.00 46 1013.4
20260502020835 11 135 0.0 0.0 0.00 0.00 0.00 46 1013.5
20260502020332 13 214 3.2 3.2 0.00 0.00 0.00 37 1013.5
20260502015829 14 140 0.0 0.0 0.00 0.00 0.00 33 1013.4
20260502015326 14 298 4.8 4.8 0.00 0.00 0.00 32 1013.4
20260502014824 14 317 4.8 4.8 0.00 0.00 0.00 33 1013.4
20260502014321 15 315 3.2 3.2 0.00 0.00 0.00 33 1013.1
20260502013816 15 320 3.2 3.2 0.00 0.00 0.00 30 1013.1
20260502013313 15 231 1.6 3.2 0.00 0.00 0.00 27 1013.3
20260502012809 15 148 0.0 1.6 0.00 0.00 0.00 30 1013.1
20260502012307 15 19 3.2 3.2 0.00 0.00 0.00 29 1013.0
20260502011804 16 317 4.8 4.8 0.00 0.00 0.00 25 1013.0
20260502011300 16 217 6.4 8.0 0.00 0.00 0.00 25 1013.3
20260502010757 15 290 6.4 9.7 0.00 0.00 0.00 26 1013.3
20260502010253 16 95 1.6 1.6 0.00 0.00 0.00 30 1013.1
20260502005751 15 329 6.4 8.0 0.00 0.00 0.00 27 1013.4
20260502005248 16 136 1.6 1.6 0.00 0.00 0.00 25 1013.0
20260502004745 16 336 4.8 4.8 0.00 0.00 0.00 25 1012.9
20260502004241 16 310 3.2 3.2 0.00 0.00 0.00 23 1013.1
20260502003739 16 192 3.2 3.2 0.00 0.00 0.00 26 1013.1
20260502003237 16 5 1.6 3.2 0.00 0.00 0.00 26 1013.1
20260502002732 16 333 6.4 8.0 0.00 0.00 0.00 25 1013.1
20260502002230 16 255 8.0 11.3 0.00 0.00 0.00 25 1013.1
20260502001727 16 257 8.0 9.7 0.00 0.00 0.00 24 1013.1
20260502001225 16 174 3.2 3.2 0.00 0.00 0.00 25 1013.3
20260502000722 16 33 3.2 3.2 0.00 0.00 0.00 25 1013.0
20260502000220 17 251 4.8 9.7 0.00 0.00 0.00 28 1013.4
20260501235715 17 168 0.0 0.0 0.00 0.00 0.00 23 1013.3
20260501235212 17 263 8.0 9.7 0.00 0.00 0.00 23 1013.3
20260501234708 17 262 4.8 8.0 0.00 0.00 0.00 21 1013.4
20260501234205 16 163 1.6 1.6 0.00 0.00 0.00 22 1013.4
20260501233703 16 201 4.8 4.8 0.00 0.00 0.00 22 1013.4
20260501233200 17 344 6.4 8.0 0.00 0.00 0.00 22 1013.5
20260501232655 16 113 3.2 3.2 0.00 0.00 0.00 22 1013.5
20260501232153 17 261 3.2 3.2 0.00 0.00 0.00 23 1013.3
20260501231651 16 189 0.0 3.2 0.00 0.00 0.00 24 1013.3
20260501231149 16 27 3.2 3.2 0.00 0.00 0.00 27 1013.1
20260501230647 16 352 9.7 11.3 0.00 0.00 0.00 24 1013.4
20260501230145 17 315 4.8 4.8 0.00 0.00 0.00 23 1013.5
20260501225642 16 90 4.8 4.8 0.00 0.00 0.00 22 1013.5
20260501225138 17 14 8.0 9.7 0.00 0.00 0.00 28 1013.4
20260501224635 16 153 0.0 0.0 0.00 0.00 0.00 29 1013.5
20260501224133 16 198 0.0 0.0 0.00 0.00 0.00 23 1013.5
20260501223629 16 184 0.0 1.6 0.00 0.00 0.00 25 1013.6
20260501223126 16 0 4.8 4.8 0.00 0.00 0.00 22 1013.6
20260501222621 16 186 1.6 1.6 0.00 0.00 0.00 27 1013.6
20260501222119 16 90 4.8 4.8 0.00 0.00 0.00 23 1013.6
20260501221615 16 316 8.0 11.3 0.00 0.00 0.00 30 1013.7
20260501221113 16 127 0.0 0.0 0.00 0.00 0.00 27 1013.9
20260501220611 16 14 4.8 8.0 0.00 0.00 0.00 26 1013.7
20260501220107 16 21 3.2 4.8 0.00 0.00 0.00 22 1013.7
20260501215604 16 110 3.2 3.2 0.00 0.00 0.00 24 1014.0
20260501215059 16 353 3.2 4.8 0.00 0.00 0.00 23 1014.2
20260501214554 15 43 4.8 4.8 0.00 0.00 0.00 25 1014.0
20260501214050 15 103 4.8 4.8 0.00 0.00 0.00 25 1014.2
20260501213547 15 15 9.7 12.9 0.00 0.00 0.00 24 1014.5
20260501213043 16 27 8.0 11.3 0.00 0.00 0.00 24 1014.3
20260501212540 16 15 4.8 4.8 0.00 0.00 0.00 26 1014.5
20260501212037 15 114 3.2 3.2 0.00 0.00 0.00 26 1014.6
20260501211533 16 220 4.8 4.8 0.00 0.00 0.00 26 1014.3
20260501211032 15 198 3.2 4.8 0.00 0.00 0.00 24 1014.2
20260501210527 15 277 8.0 8.0 0.00 0.00 0.00 27 1014.3
20260501210025 15 323 4.8 4.8 0.00 0.00 0.00 24 1014.7
20260501205521 15 182 4.8 4.8 0.00 0.00 0.00 25 1014.2
20260501205019 15 174 3.2 3.2 0.00 0.00 0.00 25 1014.3
20260501204515 15 133 4.8 8.0 0.00 0.00 0.00 24 1014.7
20260501204011 16 307 8.0 9.7 0.00 0.00 0.00 29 1014.6
20260501203508 15 194 3.2 3.2 0.00 0.00 0.00 28 1014.6
20260501203006 13 205 4.8 8.0 0.00 0.00 0.00 27 1014.6
20260501202502 13 250 8.0 11.3 0.00 0.00 0.00 29 1014.6
20260501201958 14 145 0.0 1.6 0.00 0.00 0.00 26 1014.5
20260501201456 15 353 9.7 12.9 0.00 0.00 0.00 26 1014.7
20260501200953 15 326 8.0 11.3 0.00 0.00 0.00 29 1014.8
20260501200450 13 139 3.2 3.2 0.00 0.00 0.00 27 1014.6
20260501195947 13 105 0.0 1.6 0.00 0.00 0.00 31 1014.8
20260501195444 13 103 8.0 9.7 0.00 0.00 0.00 29 1014.8
20260501194939 13 135 3.2 3.2 0.00 0.00 0.00 25 1015.3
20260501194435 14 67 3.2 4.8 0.00 0.00 0.00 31 1015.1
20260501193931 13 311 6.4 9.7 0.00 0.00 0.00 27 1014.8
20260501193430 13 202 3.2 3.2 0.00 0.00 0.00 31 1015.1
20260501192927 13 25 3.2 4.8 0.00 0.00 0.00 28 1014.9
20260501192424 13 157 1.6 3.2 0.00 0.00 0.00 30 1014.9
20260501191922 13 256 4.8 4.8 0.00 0.00 0.00 26 1014.9
20260501191419 13 207 4.8 4.8 0.00 0.00 0.00 28 1015.1
20260501190915 13 140 1.6 1.6 0.00 0.00 0.00 26 1015.1
20260501190412 12 40 4.8 4.8 0.00 0.00 0.00 28 1014.9
20260501185911 12 164 3.2 3.2 0.00 0.00 0.00 29 1015.3
20260501185408 13 217 6.4 8.0 0.00 0.00 0.00 31 1015.2
20260501184904 12 203 4.8 4.8 0.00 0.00 0.00 34 1015.2
20260501184400 13 347 4.8 4.8 0.00 0.00 0.00 31 1015.3
20260501183855 13 128 3.2 4.8 0.00 0.00 0.00 35 1015.3
20260501183353 12 137 4.8 4.8 0.00 0.00 0.00 35 1015.4
20260501182849 12 15 6.4 8.0 0.00 0.00 0.00 35 1015.4
20260501182346 12 117 1.6 1.6 0.00 0.00 0.00 32 1015.5
20260501181843 12 3 6.4 8.0 0.00 0.00 0.00 35 1015.8
20260501181340 12 66 4.8 8.0 0.00 0.00 0.00 35 1015.5
20260501180837 11 1 8.0 9.7 0.00 0.00 0.00 35 1015.5
20260501180333 12 53 4.8 4.8 0.00 0.00 0.00 36 1015.7
20260501175831 12 329 6.4 11.3 0.00 0.00 0.00 37 1015.4
20260501175327 12 201 4.8 8.0 0.00 0.00 0.00 34 1015.8
20260501174824 11 236 4.8 4.8 0.00 0.00 0.00 36 1015.5
20260501174321 12 150 0.0 1.6 0.00 0.00 0.00 36 1015.7
20260501173820 11 198 3.2 3.2 0.00 0.00 0.00 36 1015.7
20260501173317 11 186 3.2 3.2 0.00 0.00 0.00 38 1015.8
20260501172812 11 145 0.0 1.6 0.00 0.00 0.00 37 1015.9
20260501172307 11 355 4.8 4.8 0.00 0.00 0.00 35 1015.7
20260501171803 10 219 6.4 8.0 0.00 0.00 0.00 38 1015.7
20260501171300 10 267 3.2 3.2 0.00 0.00 0.00 34 1015.9
20260501170757 11 223 4.8 9.7 0.00 0.00 0.00 38 1015.8
20260501170254 11 188 1.6 1.6 0.00 0.00 0.00 38 1016.0
20260501165751 10 182 4.8 4.8 0.00 0.00 0.00 40 1015.9
20260501165249 10 226 4.8 8.0 0.00 0.00 0.00 35 1015.9
20260501164747 10 247 4.8 4.8 0.00 0.00 0.00 37 1015.9
20260501164243 10 244 8.0 8.0 0.00 0.00 0.00 41 1015.8
20260501163739 10 233 6.4 8.0 0.00 0.00 0.00 40 1015.9
20260501163237 10 214 6.4 8.0 0.00 0.00 0.00 44 1015.9
20260501162732 10 170 1.6 1.6 0.00 0.00 0.00 45 1015.9